Location: Berlin
(42.3812°N, 71.6370°W)
Time: 03:54:13
(UTC+00:00)

Cosmos 1943 - Visible Passes

Search period start: 19 February 2026 00:00
Search period end: 01 March 2026 00:00
Orbit: 830 x 850 km, 71.0° (Epoch: 18 February)

Date Brightness Start Highest point End Pass type
(mag) Time Alt. Az. Time Alt. Az. Time Alt. Az.
19 Feb 4.3 01:17:03 10° NW 01:22:19 40° WSW 01:22:46 39° WSW visible
19 Feb 4.0 23:17:34 10° N 23:22:34 30° NE 23:26:49 13° ESE visible
20 Feb 4.2 01:01:21 10° NW 01:06:41 42° WSW 01:08:40 31° SSW visible
20 Feb 4.1 23:01:57 10° N 23:06:53 29° NE 23:11:45 10° ESE visible
21 Feb 4.2 00:45:40 10° NW 00:51:03 45° WSW 00:54:51 19° S visible
22 Feb 4.1 00:29:58 10° NW 00:35:26 48° WSW 00:40:49 10° S visible
23 Feb 4.0 00:14:17 10° NW 00:19:47 51° WSW 00:25:14 10° S visible
23 Feb 3.9 23:58:35 10° NNW 00:04:09 55° WSW 00:09:38 10° S visible
24 Feb 3.8 23:42:54 10° NNW 23:48:30 59° WSW 23:54:02 10° S visible
25 Feb 3.8 23:27:14 10° NNW 23:32:51 63° WSW 23:38:24 10° S visible
26 Feb 3.7 23:11:33 10° NNW 23:17:12 67° WSW 23:22:48 10° SSE visible
27 Feb 3.6 22:55:53 10° NNW 23:01:33 71° WSW 23:07:10 10° SSE visible
